Current weather by "City, St" or "zip code"  
 
Advertise Here

Current Conditions: Spokane, Felts Field, WA

Fair


62.0 F

Last Updated on May 30 2020, 1:53 am PDT
Humidity: 75%
Wind Speed: N 0.0 mph
Barometer 29.83 in
Dewpoint: 54.0 F
Visibility: 10.00 mi
Precip: --
Heat Index: NA
Wind Chill: NA
Current conditions at:

Spokane, Felts Field, WA (KSFF)

Lat: 47.68556 Lon: 117.32028

Local Radar Image active severe weather and emergency alerts image image weather storm and storm spotter reports image weather observation monitoring service image
Local
Radar
Active
Alerts
Storm Reports Obs
Monitoring

Sign-up For Email & Text Message Weather Alert Notification Services


Advertise Here

Observation History for Spokane, Felts Field, WA


Time Wind
(mph)
Vis
(mi)
Weather Precip (in) Temperature (F) Relative
Humidity
Wind
Chill
(F)
Heat
Index
(F)
Pressure
Air Dwpt altimeter
(in)
sea level
(mb)
Rmks
1:53 am PDT N 0.0 10.00 Fair -- 62.0 54.0 75% NA NA 29.83 1008.6
12:53 am PDT N 0.0 10.00 Fair -- 64.0 55.0 73% NA NA 29.84 1008.7
11:53 pm PDT NE 3.5 10.00 Fair -- 66.0 55.0 68% NA NA 29.84 1008.8
10:53 pm PDT NE 3.5 10.00 Fair -- 69.0 55.0 61% NA NA 29.85 1009.0
9:53 pm PDT NE 3.5 10.00 Fair -- 70.0 55.9 61% NA NA 29.85 1009.3
8:53 pm PDT N 0.0 10.00 Fair -- 73.0 54.0 51% NA NA 29.85 1009.3
7:53 pm PDT N 0.0 10.00 Fair -- 78.0 54.0 43% NA NA 29.85 1009.2
6:53 pm PDT SE 4.6 10.00 Fair -- 88.0 48.9 26% NA 85 29.85 1009.2
5:53 pm PDT N 0.0 10.00 Fair -- 87.0 50.0 28% NA 84 29.86 1009.7
4:53 pm PDT N 0.0 10.00 Fair -- 88.0 48.9 26% NA 85 29.87 1010.2
3:53 pm PDT N 0.0 10.00 Fair -- 87.0 51.1 29% NA 85 29.89 1010.7
2:53 pm PDT N 4.6 10.00 Fair -- 87.0 50.0 28% NA 84 29.90 1011.3
1:53 pm PDT E 3.5 10.00 Fair -- 85.0 46.9 27% NA 83 29.92 1012.0
12:53 pm PDT 3.5 10.00 Fair -- 82.0 48.0 31% NA 81 29.95 1012.7
11:53 am PDT 3.5 10.00 Fair -- 80.0 46.0 30% NA 79 29.97 1013.4
10:53 am PDT N 4.6 10.00 Fair -- 77.0 46.9 35% NA NA 29.98 1013.9
9:53 am PDT N 3.5 10.00 Fair -- 73.0 46.0 38% NA NA 29.99 1014.4
8:53 am PDT 4.6 10.00 Fair -- 69.0 45.0 42% NA NA 30.00 1014.8
7:53 am PDT S 3.5 10.00 Fair -- 65.0 43.0 45% NA NA 30.00 1014.9
6:53 am PDT N 0.0 10.00 Fair -- 61.0 46.0 58% NA NA 29.99 1014.3
5:53 am PDT S 3.5 10.00 Fair -- 54.0 46.0 75% NA NA 30.00 1014.6
4:53 am PDT NE 3.5 10.00 Fair -- 52.0 46.0 80% NA NA 29.99 1014.6
3:53 am PDT N 0.0 10.00 Fair -- 53.0 46.9 80% NA NA 29.99 1014.2
2:53 am PDT N 3.5 10.00 Fair -- 54.0 45.0 72% NA NA 29.99 1014.3

Regional Weather Observation


Spokane, Felts Field, WA (KSFF)

Fair
62.0 F

Spokane, Spokane International Airport, WA (KGEG)

Mostly Cloudy
70.0 F

Fairchild Air Force Base, WA (KSKA)

Partly Cloudy
68.0 F

Coeur dAlene Airport - Pappy Boyington Field, ID (KCOE)

Fair
62.0 F

Sandpoint, Sandpoint Airport, ID (KSZT)

Fair
54.0 F

Boundary County Airport, ID (K65S)

Fair
55.0 F